#timestamp,LO_Frequency,Hit,StdDev 
1572534015.3,286046994.5,N
1572534035.1,286046992.2,Y
1572534055.9,286046999.2,P
1572534075.7,286046996.7,N
1572534095.5,286046997.4,N
1572534115.4,286046996.7,N
1572534135.2,286046997.7,N
1572534155.0,286046997.5,N
1572534155.9,286046997.5,N
1572534175.8,286046998.9,N
1572534195.6,286046998.2,N
1572534215.4,286046998.9,N
1572534235.3,286046999.5,N
1572534255.1,286046999.0,N
1572534275.8,286046997.0,N
1572534295.7,286046997.8,N
1572534315.5,286046997.7,N
1572534335.3,286046995.7,Y
1572534355.2,286046997.9,P
1572534375.0,286046997.1,P
1572534375.9,286046997.1,P
1572534395.7,286046997.8,Y
1572534415.6,286046998.4,P
1572534435.4,286047000.7,N
1572534455.2,286046998.8,N
1572534475.1,286046999.6,N
1572534476.0,286046999.6,N
1572534495.8,286046999.2,N
1572534515.6,286046999.3,N
1572534535.5,286046996.9,Y
1572534555.3,286046998.2,P
1572534575.1,286046999.3,N
1572534595.9,286046999.6,N
1572534615.7,286046998.3,Y
1572534635.5,286047000.8,P
1572534655.4,286046998.2,N
1572534675.2,286047000.4,N
1572534695.0,286047002.4,N
1572534695.9,286047002.4,N
1572534715.8,286046999.7,N
1572534735.6,286047002.7,N
1572534755.4,286047000.6,N
1572534775.3,286047004.3,N
1572534795.1,286046999.7,N
1572534815.8,286046999.9,N
1572534835.7,286046999.8,N
1572534855.5,286047000.7,N
1572534875.3,286047000.3,N
1572534895.2,286047002.3,N
1572534915.9,286046998.1,N
1572534935.7,286047001.2,N
1572534955.6,286046999.0,N
1572534975.4,286046998.5,N
1572534995.2,286046999.4,N
1572535015.1,286046998.3,N
1572535016.0,286046998.3,N
1572535035.8,286046998.9,N
1572535055.6,286046999.1,N
1572535075.5,286046998.7,N
1572535095.3,286047000.2,N
1572535115.1,286047001.7,N
1572535135.9,286047004.3,N
1572535155.7,286047002.4,N
1572535175.5,286047000.0,N
1572535195.4,286047002.8,N
1572535215.2,286047001.2,N
1572535235.0,286047000.8,N
1572535235.9,286047000.8,N
1572535255.8,286046998.3,N
1572535275.6,286046999.5,N
1572535295.4,286047001.1,N
1572535315.3,286046998.8,N
1572535335.1,286046997.1,N
1572535336.0,286046997.1,N
1572535355.8,286046995.6,N
1572535375.7,286046997.7,N
1572535395.5,286046996.8,N
1572535415.3,286046996.7,N
1572535435.1,286046997.4,N
1572535455.9,286046996.8,N
1572535475.7,286046996.5,N
1572535495.5,286046997.3,N
1572535515.4,286046997.7,N
1572535535.2,286046996.5,N
1572535555.0,286046997.9,N
1572535555.9,286046997.9,N
1572535575.8,286046996.8,N
1572535595.6,286046997.5,N
1572535615.4,286046997.4,N
1572535635.3,286046997.7,N
1572535655.1,286046997.9,N
1572535675.8,286046995.1,N
1572535695.7,286046997.8,N
1572535715.5,286046997.9,N
1572535735.3,286046995.4,N
1572535755.2,286046997.8,N
1572535775.0,286046998.9,N
1572535775.9,286046998.9,N
1572535795.7,286046997.0,N
1572535815.6,286046997.2,N
1572535835.4,286046997.0,N
1572535855.2,286046997.7,N
1572535875.1,286046995.1,Y
1572535876.0,286046995.1,P
1572535895.8,286046998.2,N
1572535915.6,286047001.0,N
1572535935.5,286047000.7,N
1572535955.3,286047000.3,N
1572535975.1,286046999.9,N
1572535995.9,286046999.8,N
1572536015.7,286047002.5,N
1572536035.5,286046998.1,N
1572536055.4,286046999.0,N
1572536075.2,286047001.2,N
1572536095.0,286046998.9,N
1572536095.9,286046998.9,N
1572536115.8,286046997.2,N
1572536135.6,286046997.5,N
1572536155.4,286046997.2,N
1572536175.3,286046997.0,N
1572536195.1,286046997.9,N
1572536215.8,286046995.1,N
1572536235.7,286046996.1,N
1572536255.5,286046995.9,N
1572536275.3,286046995.7,N
1572536295.2,286046996.4,N
1572536315.9,286046993.7,Y
1572536335.7,286046997.3,P
1572536355.6,286046997.3,P
1572536375.4,286046997.6,P
1572536395.2,286046998.0,Y
1572536415.1,286046999.1,P
1572536416.0,286046999.1,N
1572536435.8,286046998.8,N
1572536455.6,286046996.5,Y
1572536475.5,286046998.4,P
1572536495.3,286046998.5,P
1572536515.1,286046998.6,P
1572536535.9,286046998.3,Y
1572536555.7,286047002.2,P
1572536575.5,286047000.5,N
1572536595.4,286047000.7,N
1572536615.2,286046998.3,N
1572536635.0,286046998.7,N
1572536635.9,286046998.7,N
1572536655.8,286047000.7,N
1572536675.6,286047001.1,N
1572536695.4,286047000.9,N
1572536715.3,286046999.2,N
1572536735.1,286046999.6,N
1572536755.8,286046998.5,N
1572536775.7,286046998.7,N
1572536795.5,286046996.7,N
1572536815.3,286046995.0,Y
1572536835.2,286046997.9,P
1572536855.9,286046995.8,P
1572536875.7,286046996.3,N
1572536895.6,286046995.6,Y
1572536915.4,286046999.9,P
1572536935.2,286047000.9,N
1572536955.1,286046998.8,N
1572536956.0,286046998.8,N
1572536975.8,286046998.7,N
1572536995.6,286046999.6,N
1572537015.5,286046999.5,N
1572537035.3,286046996.8,Y
1572537055.1,286047001.2,P
1572537075.9,286046998.3,N
1572537095.7,286046999.3,N
1572537115.5,286047001.1,N
1572537135.4,286047001.2,N
1572537155.2,286046998.7,N
1572537175.0,286046999.6,N
1572537175.9,286046999.6,N
1572537195.8,286046998.7,N
1572537215.6,286046997.3,N
1572537235.4,286046995.8,Y
1572537255.3,286046996.2,P
1572537275.1,286046994.9,P
1572537295.8,286046995.2,N
1572537315.7,286046993.3,Y
1572537335.5,286046998.2,P
1572537355.3,286046999.0,N
1572537375.2,286046997.7,N
1572537395.9,286046997.0,Y
1572537415.7,286046999.7,P
1572537435.6,286047002.3,N
1572537455.4,286047002.2,N
1572537475.2,286047000.6,N
1572537495.1,286047000.0,N
1572537496.0,286047000.0,N
1572537515.8,286047000.8,N
1572537535.6,286047000.2,N
1572537555.5,286047001.1,N
1572537575.3,286046998.3,N
1572537595.1,286047001.2,N
